Starlink 4331

operational
NORAD ID: 53046 Int'l Des: 2022-077 Owner: SPXS Country: US Constellation: starlink
LEOCIRCULARRETROGRADESSO

About Starlink 4331

Description loading...

Live Position

Loading 3D Globe...

Upcoming Passes

Altitude History

Altitude vs Time

uPlot chart will show altitude changes over time

Two-Line Element Set

1 53046U 22077D 25304.29581852 .00000360 00000-0 29144-4 0 9993
2 53046 97.6028 123.7697 0001919 88.5844 271.5602 15.05649469181523
Epoch: Oct 31, 2025 • Age: 9 hours

Current Status

Altitude 571.5 km
Velocity 7.57 km/s
Sub-Earth Point -53.70°S, 11.85°E
Launch Date Jul 11, 2022
Age 3.3 years
Type internet

Technical Details

Classification Payload
Mass 297.00 kg
Dry Mass 275.00 kg
Total Mass 297.00 kg
Length 0.20 m
Diameter 2.80 m
Span 9.00 m
Shape Box + pan
Manufacturer SPXS
Bus Type Starlink
Phase Status In Orbit
Owner/State SPXS/US

Large Constellations

Loading constellations...